Overview Statistics Trail Chart Weather Telemetry Raw packets
 

This is the latest recevied weather packets stored in our database for station/object KD4EED. If no packets are shown the sender has not sent any weather packets the latest 10 day(s).

<< 17 18 19 20 21 22 23 >>
Time Temp. Humidity Pressure Rain* Wind** Luminosity Snow
1788564063 28.33° C 54% 1010 hPa - - 334 W/m² -
1788563758 28.33° C 53% 1009.9 hPa - - 348 W/m² -
1788563453 28.33° C 53% 1010 hPa - - 360 W/m² -
1788563152 28.33° C 54% 1009.8 hPa - - 371 W/m² -
1788562848 28.89° C 54% 1010.1 hPa - - 381 W/m² -
1788562545 28.33° C 54% 1010.1 hPa - - 385 W/m² -
1788562245 28.33° C 53% 1010.2 hPa - - 394 W/m² -
1788561940 28.33° C 53% 1010.3 hPa - - 401 W/m² -
1788561640 28.89° C 53% 1010 hPa - - 407 W/m² -
1788561339 28.89° C 53% 1010.1 hPa - - 419 W/m² -
1788561035 28.89° C 53% 1010.3 hPa - - 427 W/m² -
1788560730 28.89° C 52% 1010.3 hPa - - 440 W/m² -
1788560426 28.89° C 52% 1010.5 hPa - - 453 W/m² -
1788560120 28.89° C 53% 1010.4 hPa - - 462 W/m² -
1788559815 28.89° C 52% 1010.4 hPa - - 481 W/m² -
1788559515 28.89° C 53% 1010.3 hPa - - 494 W/m² -
1788559211 28.89° C 53% 1010.4 hPa - - 509 W/m² -
1788558911 28.33° C 54% 1010.5 hPa - - 523 W/m² -
1788558607 28.33° C 54% 1010.3 hPa - - 536 W/m² -
1788558302 28.33° C 53% 1010.3 hPa - - 543 W/m² -
1788558002 28.89° C 52% 1010.3 hPa - - 551 W/m² -
1788557700 28.89° C 50% 1010.5 hPa - - 563 W/m² -
1788557397 28.89° C 51% 1010.3 hPa - - 570 W/m² -
1788557096 28.89° C 51% 1010.4 hPa - - 577 W/m² -
1788556791 28.89° C 52% 1010.4 hPa - - 585 W/m² -

* Rain since midnight (hover to see other rain measurements)
** Current wind speed in m/s (hover to see current wind gust speed)